TOM564 EGLL-LOWW

Flight info

Callsign TOM564
Flight time N/A
Altitude 37000
Route DET L6 DVR UL9 KONAN DCT KOK UL607 FERDI DCT MATUG DCT GUBAX DCT BARSU DCT EKSOS DCT LULAR DCT RUDAP DCT BUDEX BUDEX2W
Aircraft B752/M-SDE2E3FGHIJ3J4J7RWXY/LB1

Departure

Time N/A
Airport London Heathrow Airport (EGLL)

Arrival

Time 2026-05-07 20:52
Airport Vienna International Airport (LOWW)
Time Latitude Longitude Altitude Speed Heading
2026-05-07 19:35 50.96910 3.37662 36164 ft 478 kts 102°
2026-05-07 19:35 50.96244 3.42844 36383 ft 478 kts 102°
2026-05-07 19:35 50.95575 3.48024 36612 ft 477 kts 102°
2026-05-07 19:36 50.94916 3.53115 36791 ft 477 kts 102°
2026-05-07 19:36 50.94237 3.58338 36980 ft 477 kts 102°
2026-05-07 19:36 50.92907 3.68509 37045 ft 474 kts 103°
2026-05-07 19:37 50.91552 3.78802 37044 ft 476 kts 103°
2026-05-07 19:37 50.90186 3.89097 37040 ft 476 kts 103°
2026-05-07 19:38 50.88825 3.99283 37047 ft 476 kts 103°
2026-05-07 19:38 50.87455 4.09465 37046 ft 476 kts 103°
2026-05-07 19:39 50.86075 4.19654 37050 ft 476 kts 103°
2026-05-07 19:39 50.84680 4.29878 37051 ft 476 kts 103°
2026-05-07 19:40 50.83282 4.40049 37050 ft 476 kts 103°
2026-05-07 19:40 50.81941 4.49745 37054 ft 476 kts 103°
2026-05-07 19:41 50.80528 4.59892 37055 ft 475 kts 103°
2026-05-07 19:41 50.79108 4.70019 37054 ft 476 kts 104°
2026-05-07 19:42 50.77678 4.80154 37047 ft 476 kts 104°
2026-05-07 19:42 50.76236 4.90304 37045 ft 475 kts 104°
2026-05-07 19:43 50.74782 5.00460 37044 ft 475 kts 104°
2026-05-07 19:43 50.73318 5.10629 37048 ft 476 kts 104°
2026-05-07 19:44 50.71847 5.20772 37048 ft 475 kts 104°
2026-05-07 19:44 50.70364 5.30934 37053 ft 475 kts 104°
2026-05-07 19:45 50.68874 5.41078 37054 ft 476 kts 104°
2026-05-07 19:45 50.67372 5.51229 37056 ft 475 kts 104°
2026-05-07 19:46 50.65865 5.61363 37059 ft 475 kts 104°
2026-05-07 19:46 50.64375 5.71308 37049 ft 476 kts 104°
2026-05-07 19:47 50.62869 5.81295 37048 ft 475 kts 104°
2026-05-07 19:47 50.61346 5.91340 37041 ft 475 kts 104°
2026-05-07 19:48 50.59798 6.01476 37037 ft 475 kts 104°
2026-05-07 19:48 50.58249 6.11562 37026 ft 475 kts 104°
2026-05-07 19:49 50.56677 6.21728 37033 ft 475 kts 104°
2026-05-07 19:49 50.55116 6.31763 37031 ft 475 kts 104°
2026-05-07 19:50 50.53542 6.41823 37032 ft 475 kts 104°
2026-05-07 19:50 50.51957 6.51885 37033 ft 475 kts 104°
2026-05-07 19:51 50.50355 6.61993 37033 ft 476 kts 104°
2026-05-07 19:51 50.48779 6.71883 37026 ft 475 kts 105°
2026-05-07 19:52 50.47187 6.81805 37034 ft 475 kts 105°
2026-05-07 19:52 50.45594 6.91679 37039 ft 476 kts 105°
2026-05-07 19:53 50.43968 7.01699 37036 ft 477 kts 105°
2026-05-07 19:53 50.42308 7.11862 37040 ft 485 kts 105°
2026-05-07 19:54 50.40622 7.22129 37037 ft 490 kts 105°
2026-05-07 19:54 50.38913 7.32470 37038 ft 489 kts 105°
2026-05-07 19:55 50.37199 7.42782 37032 ft 489 kts 105°
2026-05-07 19:55 50.35467 7.53132 37026 ft 489 kts 105°
2026-05-07 19:56 50.33743 7.63375 37032 ft 490 kts 105°
2026-05-07 19:56 50.32026 7.73519 37030 ft 489 kts 106°
2026-05-07 19:57 50.30374 7.83220 37025 ft 490 kts 106°
2026-05-07 19:57 50.28677 7.93474 37025 ft 491 kts 103°
2026-05-07 19:58 50.27264 8.03862 37026 ft 491 kts 103°
2026-05-07 19:58 50.25814 8.14341 37022 ft 490 kts 103°
2026-05-07 19:59 50.24362 8.24751 37027 ft 490 kts 103°
2026-05-07 19:59 50.22906 8.35108 37032 ft 491 kts 103°
2026-05-07 20:00 50.21435 8.45488 37024 ft 490 kts 103°
2026-05-07 20:00 50.19960 8.55837 37024 ft 490 kts 103°
2026-05-07 20:01 50.18512 8.65918 37030 ft 490 kts 103°
2026-05-07 20:01 50.17135 8.75455 37047 ft 490 kts 103°
2026-05-07 20:02 50.15631 8.85791 37041 ft 490 kts 103°
2026-05-07 20:02 50.14111 8.96174 37037 ft 490 kts 103°
2026-05-07 20:03 50.12586 9.06516 37043 ft 490 kts 103°
2026-05-07 20:03 50.11060 9.16805 37041 ft 490 kts 103°
2026-05-07 20:04 50.09505 9.27210 37045 ft 491 kts 103°
2026-05-07 20:04 50.07948 9.37567 37029 ft 491 kts 103°
2026-05-07 20:05 50.06378 9.47937 37028 ft 491 kts 103°
2026-05-07 20:05 50.04805 9.58264 37024 ft 491 kts 103°
2026-05-07 20:06 50.03248 9.68421 37028 ft 491 kts 104°
2026-05-07 20:06 50.01740 9.78198 37035 ft 492 kts 104°
2026-05-07 20:07 50.00109 9.88702 37034 ft 492 kts 104°
2026-05-07 20:07 49.98492 9.99052 37036 ft 492 kts 104°
2026-05-07 20:08 49.96867 10.09381 37037 ft 492 kts 104°
2026-05-07 20:08 49.95229 10.19736 37038 ft 492 kts 104°
2026-05-07 20:09 49.93590 10.30025 37041 ft 492 kts 104°
2026-05-07 20:10 49.90502 10.45112 37039 ft 491 kts 112°
2026-05-07 20:10 49.88059 10.54743 37039 ft 491 kts 112°
2026-05-07 20:11 49.85509 10.64641 37037 ft 492 kts 112°
2026-05-07 20:11 49.83049 10.74112 37037 ft 491 kts 113°
2026-05-07 20:12 49.80410 10.84214 37038 ft 492 kts 113°
2026-05-07 20:12 49.77838 10.94009 37037 ft 492 kts 113°
2026-05-07 20:13 49.75259 11.03785 37033 ft 491 kts 113°
2026-05-07 20:13 49.72671 11.13557 37033 ft 492 kts 113°
2026-05-07 20:14 49.70073 11.23324 37024 ft 492 kts 113°
2026-05-07 20:14 49.67464 11.33088 37030 ft 491 kts 113°
2026-05-07 20:15 49.64921 11.42887 37029 ft 493 kts 109°
2026-05-07 20:15 49.62858 11.53008 37032 ft 493 kts 108°
2026-05-07 20:16 49.60778 11.63053 37030 ft 493 kts 108°
2026-05-07 20:16 49.58658 11.73205 37023 ft 492 kts 109°
2026-05-07 20:17 49.56536 11.83308 37020 ft 493 kts 109°
2026-05-07 20:17 49.54411 11.93366 37015 ft 493 kts 109°
2026-05-07 20:18 49.52280 12.03404 37011 ft 493 kts 109°
2026-05-07 20:18 49.50148 12.13401 37015 ft 493 kts 109°
2026-05-07 20:19 49.47997 12.23429 37019 ft 494 kts 109°
2026-05-07 20:19 49.45841 12.33437 37017 ft 494 kts 109°
2026-05-07 20:20 49.43659 12.43514 37014 ft 494 kts 109°
2026-05-07 20:20 49.41476 12.53549 37014 ft 494 kts 110°
2026-05-07 20:21 49.39288 12.63557 37017 ft 495 kts 110°
2026-05-07 20:21 49.37086 12.73579 37017 ft 494 kts 110°
2026-05-07 20:22 49.35327 12.81053 37016 ft 494 kts 112°
2026-05-07 20:22 49.32898 12.90979 37015 ft 495 kts 112°
2026-05-07 20:23 49.30463 13.00900 37014 ft 495 kts 112°
2026-05-07 20:23 49.29281 13.05711 36969 ft 477 kts 112°
2026-05-07 20:23 49.28127 13.10393 37003 ft 465 kts 112°
2026-05-07 20:24 49.25846 13.19607 37009 ft 465 kts 112°
2026-05-07 20:24 49.23495 13.28923 37006 ft 474 kts 114°
2026-05-07 20:25 49.20950 13.38381 37008 ft 484 kts 114°
2026-05-07 20:25 49.18370 13.47954 37006 ft 492 kts 114°
2026-05-07 20:26 49.15744 13.57661 37006 ft 496 kts 114°
2026-05-07 20:26 49.13144 13.67236 37001 ft 494 kts 115°
2026-05-07 20:27 49.10439 13.77152 36559 ft 499 kts 115°
2026-05-07 20:27 49.09141 13.81902 36559 ft 482 kts 115°
2026-05-07 20:27 49.07862 13.86575 36540 ft 466 kts 115°
2026-05-07 20:27 49.06618 13.91106 36131 ft 462 kts 115°
2026-05-07 20:28 49.05380 13.95601 35461 ft 463 kts 115°
2026-05-07 20:28 49.04123 14.00155 34788 ft 464 kts 115°
2026-05-07 20:28 49.02878 14.04659 34121 ft 465 kts 115°
2026-05-07 20:28 49.01608 14.09250 33515 ft 466 kts 115°
2026-05-07 20:29 49.00368 14.13722 32949 ft 464 kts 115°
2026-05-07 20:29 48.99117 14.18228 32373 ft 461 kts 115°
2026-05-07 20:29 48.97871 14.22702 31788 ft 458 kts 115°
2026-05-07 20:29 48.96623 14.27182 31177 ft 455 kts 115°
2026-05-07 20:30 48.95352 14.31516 30462 ft 448 kts 121°
2026-05-07 20:30 48.93727 14.35495 29631 ft 433 kts 129°
2026-05-07 20:30 48.91956 14.39115 28849 ft 434 kts 130°
2026-05-07 20:30 48.90128 14.42816 28060 ft 439 kts 130°
2026-05-07 20:31 48.88258 14.46568 27251 ft 434 kts 130°
2026-05-07 20:31 48.86449 14.50174 26459 ft 428 kts 130°
2026-05-07 20:31 48.84630 14.53784 25655 ft 422 kts 130°
2026-05-07 20:31 48.82859 14.57286 24846 ft 417 kts 130°
2026-05-07 20:32 48.81105 14.60747 24025 ft 412 kts 130°
2026-05-07 20:32 48.79375 14.64152 23221 ft 407 kts 130°
2026-05-07 20:32 48.77662 14.67520 22420 ft 402 kts 131°
2026-05-07 20:32 48.75960 14.70862 21615 ft 397 kts 131°
2026-05-07 20:33 48.74374 14.73970 20915 ft 398 kts 131°
2026-05-07 20:33 48.72893 14.76870 20237 ft 396 kts 131°
2026-05-07 20:33 48.71202 14.80176 19471 ft 388 kts 131°
2026-05-07 20:33 48.69585 14.83335 18785 ft 379 kts 131°
2026-05-07 20:34 48.67969 14.86484 18136 ft 373 kts 131°
2026-05-07 20:34 48.66392 14.89553 17557 ft 370 kts 130°
2026-05-07 20:34 48.64815 14.92619 17030 ft 371 kts 130°
2026-05-07 20:34 48.63229 14.95699 16529 ft 370 kts 130°
2026-05-07 20:35 48.61657 14.98751 16043 ft 368 kts 130°
2026-05-07 20:35 48.60094 15.01795 15574 ft 367 kts 128°
2026-05-07 20:35 48.58836 15.05225 15107 ft 369 kts 112°
2026-05-07 20:35 48.58121 15.08904 14639 ft 371 kts 106°
2026-05-07 20:36 48.57452 15.12681 14138 ft 369 kts 106°
2026-05-07 20:36 48.56792 15.16441 13647 ft 365 kts 105°
2026-05-07 20:36 48.56151 15.20122 13180 ft 363 kts 105°
2026-05-07 20:36 48.55516 15.23776 12712 ft 361 kts 105°
2026-05-07 20:37 48.54876 15.27456 12242 ft 358 kts 105°
2026-05-07 20:37 48.54254 15.31039 11789 ft 355 kts 104°
2026-05-07 20:37 48.53631 15.34615 11338 ft 352 kts 104°
2026-05-07 20:37 48.53010 15.38182 10878 ft 350 kts 104°
2026-05-07 20:38 48.52389 15.41738 10431 ft 349 kts 103°
2026-05-07 20:38 48.51953 15.45251 10068 ft 330 kts 94°
2026-05-07 20:38 48.51763 15.48625 9544 ft 312 kts 94°
2026-05-07 20:38 48.51582 15.51742 9365 ft 283 kts 94°
2026-05-07 20:39 48.51413 15.54694 9397 ft 286 kts 93°
2026-05-07 20:39 48.51242 15.57711 9397 ft 294 kts 93°
2026-05-07 20:39 48.51065 15.60810 9395 ft 292 kts 93°
2026-05-07 20:39 48.50894 15.63827 9391 ft 292 kts 93°
2026-05-07 20:40 48.50715 15.66967 9394 ft 293 kts 94°
2026-05-07 20:40 48.50534 15.70065 9179 ft 294 kts 94°
2026-05-07 20:40 48.50362 15.73024 8920 ft 290 kts 94°
2026-05-07 20:40 48.50185 15.76066 8666 ft 290 kts 94°
2026-05-07 20:41 48.50009 15.79059 8422 ft 288 kts 94°
2026-05-07 20:41 48.49829 15.82087 8168 ft 285 kts 94°
2026-05-07 20:41 48.49656 15.85047 7924 ft 286 kts 95°
2026-05-07 20:41 48.49477 15.88042 7691 ft 285 kts 94°
2026-05-07 20:42 48.49298 15.91014 7441 ft 282 kts 94°
2026-05-07 20:42 48.49120 15.93988 7248 ft 287 kts 94°
2026-05-07 20:42 48.48941 15.96947 6991 ft 281 kts 94°
2026-05-07 20:42 48.48764 15.99883 6728 ft 278 kts 95°
2026-05-07 20:43 48.48589 16.02768 6485 ft 277 kts 95°
2026-05-07 20:43 48.48411 16.05658 6259 ft 276 kts 95°
2026-05-07 20:43 48.48230 16.08550 6025 ft 275 kts 97°
2026-05-07 20:43 48.47686 16.11303 5865 ft 273 kts 114°
2026-05-07 20:44 48.46920 16.13931 5828 ft 273 kts 113°
2026-05-07 20:44 48.46163 16.16565 5782 ft 275 kts 114°
2026-05-07 20:44 48.45387 16.19220 5729 ft 272 kts 114°
2026-05-07 20:44 48.44628 16.21799 5669 ft 267 kts 114°
2026-05-07 20:45 48.43876 16.24347 5641 ft 267 kts 114°
2026-05-07 20:45 48.43106 16.26944 5588 ft 269 kts 114°
2026-05-07 20:45 48.42350 16.29489 5563 ft 266 kts 114°
2026-05-07 20:45 48.41579 16.32083 5567 ft 267 kts 114°
2026-05-07 20:46 48.40823 16.34623 5564 ft 267 kts 114°
2026-05-07 20:46 48.40056 16.37196 5554 ft 266 kts 113°
2026-05-07 20:46 48.39306 16.39709 5558 ft 266 kts 114°
2026-05-07 20:46 48.38541 16.42274 5558 ft 267 kts 114°
2026-05-07 20:47 48.37764 16.44796 5562 ft 267 kts 120°
2026-05-07 20:47 48.36513 16.46840 5581 ft 265 kts 149°
2026-05-07 20:47 48.34821 16.47906 5462 ft 267 kts 162°
2026-05-07 20:47 48.33057 16.48811 5112 ft 268 kts 162°
2026-05-07 20:48 48.31294 16.49667 4697 ft 258 kts 165°
2026-05-07 20:48 48.29579 16.50389 4316 ft 253 kts 165°
2026-05-07 20:48 48.27901 16.51093 3948 ft 247 kts 165°
2026-05-07 20:48 48.26262 16.51781 3594 ft 242 kts 165°
2026-05-07 20:49 48.24674 16.52449 3258 ft 234 kts 165°
2026-05-07 20:49 48.23125 16.53110 2953 ft 224 kts 165°
2026-05-07 20:49 48.21659 16.53744 2632 ft 216 kts 166°
2026-05-07 20:49 48.20270 16.54337 2384 ft 198 kts 166°
2026-05-07 20:50 48.18998 16.54877 2082 ft 182 kts 167°
2026-05-07 20:50 48.17839 16.55367 1822 ft 167 kts 167°
2026-05-07 20:50 48.16772 16.55818 1624 ft 149 kts 168°
2026-05-07 20:50 48.15828 16.56217 1403 ft 135 kts 168°
2026-05-07 20:51 48.14966 16.56583 1182 ft 122 kts 168°
2026-05-07 20:51 48.14149 16.56928 1060 ft 124 kts 169°
2026-05-07 20:51 48.13284 16.57272 908 ft 129 kts 170°
2026-05-07 20:51 48.12422 16.57633 721 ft 127 kts 168°
2026-05-07 20:52 48.11577 16.57993 615 ft 123 kts 169°
2026-05-07 20:52 48.10869 16.58284 611 ft 75 kts 164°
2026-05-07 20:52 48.10472 16.58450 611 ft 48 kts 171°
2026-05-07 20:52 48.10222 16.58434 611 ft 22 kts 195°
2026-05-07 20:53 48.10131 16.58393 611 ft 10 kts 210°
2026-05-07 20:53 48.10123 16.58335 611 ft 5 kts 319°
2026-05-07 20:53 48.10162 16.58307 611 ft 6 kts 340°
2026-05-07 20:53 48.10176 16.58301 611 ft 0 kts 343°
2026-05-07 20:55 48.10200 16.58290 611 ft 6 kts 343°
2026-05-07 20:55 48.10254 16.58267 611 ft 10 kts 344°
2026-05-07 20:55 48.10339 16.58231 611 ft 14 kts 344°
2026-05-07 20:56 48.10453 16.58182 611 ft 19 kts 343°
2026-05-07 20:56 48.10598 16.58122 611 ft 23 kts 343°
2026-05-07 20:56 48.10774 16.58047 611 ft 28 kts 343°
2026-05-07 20:56 48.10973 16.57961 611 ft 30 kts 344°
2026-05-07 20:57 48.11177 16.57876 611 ft 30 kts 344°
2026-05-07 20:57 48.11371 16.57795 611 ft 26 kts 342°
2026-05-07 20:57 48.11478 16.57733 611 ft 13 kts 313°
2026-05-07 20:57 48.11525 16.57615 611 ft 13 kts 295°
2026-05-07 20:58 48.11548 16.57515 611 ft 5 kts 249°
2026-05-07 20:58 48.11514 16.57481 611 ft 6 kts 208°